| time (UTC) | temp F | wind direction | speed knots | gust knots | rain 1hr in | rain 24hr in | rain mn in | humidity % | barometer mb |
| 20260506144823 | 79 | 190 | 7.0 | 0.0 | 0.00 | 0.00 | 0.00 | 28 | 1012.0 |
| 20260506143335 | 79 | 190 | 7.0 | 0.0 | 0.00 | 0.00 | 0.00 | 28 | 1012.0 |
| 20260506141823 | 81 | 7.0 | 0.0 | 0.00 | 0.00 | 0.00 | 30 | 1012.0 | |
| 20260506140440 | 81 | 7.0 | 0.0 | 0.00 | 0.00 | 0.00 | 30 | 1012.0 | |
| 20260506134848 | 79 | 140 | 9.6 | 0.0 | 0.00 | 0.00 | 0.00 | 28 | 1012.0 |
| 20260506133323 | 79 | 140 | 9.6 | 0.0 | 0.00 | 0.00 | 0.00 | 28 | 1012.0 |
| 20260506131823 | 81 | 170 | 7.8 | 0.0 | 0.00 | 0.00 | 0.00 | 26 | 1012.0 |
| 20260506130332 | 81 | 170 | 7.8 | 0.0 | 0.00 | 0.00 | 0.00 | 26 | 1012.0 |
| 20260506124824 | 81 | 180 | 6.1 | 0.0 | 0.00 | 0.00 | 0.00 | 26 | 1013.0 |
| 20260506123323 | 81 | 180 | 6.1 | 0.0 | 0.00 | 0.00 | 0.00 | 26 | 1013.0 |
| 20260506121823 | 79 | 5.2 | 0.0 | 0.00 | 0.00 | 0.00 | 28 | 1013.0 | |
| 20260506120323 | 79 | 5.2 | 0.0 | 0.00 | 0.00 | 0.00 | 28 | 1013.0 | |
| 20260506114823 | 79 | 200 | 6.1 | 0.0 | 0.00 | 0.00 | 0.00 | 26 | 1013.0 |
| 20260506113323 | 79 | 200 | 6.1 | 0.0 | 0.00 | 0.00 | 0.00 | 26 | 1013.0 |
| 20260506111823 | 79 | 150 | 7.8 | 0.0 | 0.00 | 0.00 | 0.00 | 26 | 1013.0 |
| 20260506110323 | 79 | 150 | 7.8 | 0.0 | 0.00 | 0.00 | 0.00 | 26 | 1013.0 |
| 20260506104823 | 77 | 140 | 7.0 | 0.0 | 0.00 | 0.00 | 0.00 | 30 | 1013.0 |
| 20260506103323 | 77 | 140 | 7.0 | 0.0 | 0.00 | 0.00 | 0.00 | 30 | 1013.0 |
| 20260506101823 | 77 | 150 | 6.1 | 0.0 | 0.00 | 0.00 | 0.00 | 32 | 1014.0 |
| 20260506100323 | 77 | 150 | 6.1 | 0.0 | 0.00 | 0.00 | 0.00 | 32 | 1014.0 |
| 20260506094823 | 75 | 160 | 7.8 | 0.0 | 0.00 | 0.00 | 0.00 | 29 | 1014.0 |
| 20260506093323 | 75 | 160 | 7.8 | 0.0 | 0.00 | 0.00 | 0.00 | 29 | 1014.0 |
| 20260506091823 | 75 | 180 | 6.1 | 0.0 | 0.00 | 0.00 | 0.00 | 34 | 1014.0 |
| 20260506090323 | 75 | 180 | 6.1 | 0.0 | 0.00 | 0.00 | 0.00 | 34 | 1014.0 |
| 20260506084823 | 73 | 130 | 4.3 | 0.0 | 0.00 | 0.00 | 0.00 | 36 | 1014.0 |
| 20260506083323 | 73 | 130 | 4.3 | 0.0 | 0.00 | 0.00 | 0.00 | 36 | 1014.0 |
| 20260506081820 | 70 | 130 | 4.3 | 0.0 | 0.00 | 0.00 | 0.00 | 40 | 1014.0 |
| 20260506080323 | 70 | 130 | 4.3 | 0.0 | 0.00 | 0.00 | 0.00 | 40 | 1014.0 |
| 20260506073323 | 66 | 120 | 5.2 | 0.0 | 0.00 | 0.00 | 0.00 | 46 | 1014.0 |
| 20260506071823 | 64 | 130 | 5.2 | 0.0 | 0.00 | 0.00 | 0.00 | 49 | 1014.0 |
| 20260506070323 | 64 | 130 | 5.2 | 0.0 | 0.00 | 0.00 | 0.00 | 49 | 1014.0 |
| 20260506061823 | 59 | 120 | 7.8 | 0.0 | 0.00 | 0.00 | 0.00 | 51 | 1014.0 |
| 20260506060325 | 59 | 120 | 7.8 | 0.0 | 0.00 | 0.00 | 0.00 | 51 | 1014.0 |
| 20260506050337 | 55 | 110 | 7.8 | 0.0 | 0.00 | 0.00 | 0.00 | 55 | 1014.0 |
| 20260506044839 | 54 | 110 | 7.0 | 0.0 | 0.00 | 0.00 | 0.00 | 58 | 1014.0 |
| 20260506043327 | 54 | 110 | 7.0 | 0.0 | 0.00 | 0.00 | 0.00 | 58 | 1014.0 |
| 20260506041824 | 52 | 100 | 7.0 | 0.0 | 0.00 | 0.00 | 0.00 | 62 | 1014.0 |
| 20260506040323 | 52 | 100 | 7.0 | 0.0 | 0.00 | 0.00 | 0.00 | 62 | 1014.0 |
| 20260506034823 | 50 | 100 | 7.0 | 0.0 | 0.00 | 0.00 | 0.00 | 62 | 1014.0 |
| 20260506033323 | 50 | 100 | 7.0 | 0.0 | 0.00 | 0.00 | 0.00 | 62 | 1014.0 |
| 20260506031823 | 48 | 110 | 7.0 | 0.0 | 0.00 | 0.00 | 0.00 | 66 | 1014.0 |
| 20260506030322 | 48 | 110 | 7.0 | 0.0 | 0.00 | 0.00 | 0.00 | 66 | 1014.0 |
| 20260506024823 | 50 | 110 | 6.1 | 0.0 | 0.00 | 0.00 | 0.00 | 62 | 1013.0 |
| 20260506023323 | 50 | 110 | 6.1 | 0.0 | 0.00 | 0.00 | 0.00 | 62 | 1013.0 |
| 20260506021823 | 50 | 110 | 5.2 | 0.0 | 0.00 | 0.00 | 0.00 | 62 | 1013.0 |
| 20260506020323 | 50 | 110 | 5.2 | 0.0 | 0.00 | 0.00 | 0.00 | 62 | 1013.0 |
| 20260506014823 | 52 | 110 | 6.1 | 0.0 | 0.00 | 0.00 | 0.00 | 58 | 1013.0 |
| 20260506013323 | 52 | 110 | 6.1 | 0.0 | 0.00 | 0.00 | 0.00 | 58 | 1013.0 |
| 20260506011823 | 52 | 120 | 7.0 | 0.0 | 0.00 | 0.00 | 0.00 | 62 | 1013.0 |
| 20260506010323 | 52 | 120 | 7.0 | 0.0 | 0.00 | 0.00 | 0.00 | 62 | 1013.0 |
| 20260506004823 | 52 | 120 | 7.0 | 0.0 | 0.00 | 0.00 | 0.00 | 67 | 1013.0 |
| 20260506003441 | 52 | 120 | 7.0 | 0.0 | 0.00 | 0.00 | 0.00 | 67 | 1013.0 |
| 20260506001823 | 52 | 120 | 7.8 | 0.0 | 0.00 | 0.00 | 0.00 | 72 | 1013.0 |
| 20260506000324 | 52 | 120 | 7.8 | 0.0 | 0.00 | 0.00 | 0.00 | 72 | 1013.0 |
| 20260505234823 | 54 | 110 | 8.7 | 0.0 | 0.00 | 0.00 | 0.00 | 67 | 1013.0 |
| 20260505233322 | 54 | 110 | 8.7 | 0.0 | 0.00 | 0.00 | 0.00 | 67 | 1013.0 |
| 20260505231823 | 54 | 110 | 9.6 | 0.0 | 0.00 | 0.00 | 0.00 | 67 | 1013.0 |
| 20260505230323 | 54 | 110 | 9.6 | 0.0 | 0.00 | 0.00 | 0.00 | 67 | 1013.0 |
| 20260505224823 | 55 | 110 | 9.6 | 0.0 | 0.00 | 0.00 | 0.00 | 63 | 1013.0 |
| 20260505223323 | 55 | 110 | 9.6 | 0.0 | 0.00 | 0.00 | 0.00 | 63 | 1013.0 |
| 20260505221820 | 57 | 110 | 9.6 | 0.0 | 0.00 | 0.00 | 0.00 | 59 | 1013.0 |
| 20260505220323 | 57 | 110 | 9.6 | 0.0 | 0.00 | 0.00 | 0.00 | 59 | 1013.0 |
| 20260505214824 | 57 | 100 | 7.8 | 0.0 | 0.00 | 0.00 | 0.00 | 59 | 1013.0 |
| 20260505213323 | 57 | 100 | 7.8 | 0.0 | 0.00 | 0.00 | 0.00 | 59 | 1013.0 |
| 20260505211823 | 61 | 90 | 5.2 | 0.0 | 0.00 | 0.00 | 0.00 | 52 | 1013.0 |
| 20260505210323 | 61 | 90 | 5.2 | 0.0 | 0.00 | 0.00 | 0.00 | 52 | 1013.0 |
| 20260505204825 | 64 | 130 | 2.6 | 0.0 | 0.00 | 0.00 | 0.00 | 43 | 1013.0 |
| 20260505203322 | 64 | 130 | 2.6 | 0.0 | 0.00 | 0.00 | 0.00 | 43 | 1013.0 |
| 20260505201854 | 66 | 1.7 | 0.0 | 0.00 | 0.00 | 0.00 | 40 | 1013.0 | |
| 20260505200323 | 66 | 1.7 | 0.0 | 0.00 | 0.00 | 0.00 | 40 | 1013.0 | |
| 20260505194823 | 68 | 230 | 2.6 | 0.0 | 0.00 | 0.00 | 0.00 | 38 | 1012.0 |
| 20260505193323 | 68 | 230 | 2.6 | 0.0 | 0.00 | 0.00 | 0.00 | 38 | 1012.0 |
| 20260505191823 | 68 | 180 | 6.1 | 0.0 | 0.00 | 0.00 | 0.00 | 38 | 1012.0 |
| 20260505190322 | 68 | 180 | 6.1 | 0.0 | 0.00 | 0.00 | 0.00 | 38 | 1012.0 |
| 20260505184824 | 70 | 180 | 6.1 | 0.0 | 0.00 | 0.00 | 0.00 | 35 | 1012.0 |
| 20260505183323 | 70 | 180 | 6.1 | 0.0 | 0.00 | 0.00 | 0.00 | 35 | 1012.0 |
| 20260505181824 | 72 | 180 | 4.3 | 0.0 | 0.00 | 0.00 | 0.00 | 33 | 1012.0 |
| 20260505180323 | 72 | 180 | 4.3 | 0.0 | 0.00 | 0.00 | 0.00 | 33 | 1012.0 |
| 20260505174820 | 72 | 150 | 5.2 | 0.0 | 0.00 | 0.00 | 0.00 | 31 | 1012.0 |
| 20260505173323 | 72 | 150 | 5.2 | 0.0 | 0.00 | 0.00 | 0.00 | 31 | 1012.0 |
| 20260505171823 | 75 | 120 | 5.2 | 0.0 | 0.00 | 0.00 | 0.00 | 27 | 1012.0 |
| 20260505170323 | 75 | 120 | 5.2 | 0.0 | 0.00 | 0.00 | 0.00 | 27 | 1012.0 |
| 20260505164823 | 75 | 140 | 5.2 | 0.0 | 0.00 | 0.00 | 0.00 | 27 | 1012.0 |
| 20260505163323 | 75 | 140 | 5.2 | 0.0 | 0.00 | 0.00 | 0.00 | 27 | 1012.0 |
| 20260505161824 | 77 | 110 | 5.2 | 0.0 | 0.00 | 0.00 | 0.00 | 24 | 1012.0 |
| 20260505160323 | 77 | 110 | 5.2 | 0.0 | 0.00 | 0.00 | 0.00 | 24 | 1012.0 |
| 20260505153323 | 77 | 140 | 5.2 | 0.0 | 0.00 | 0.00 | 0.00 | 26 | 1012.0 |
| 20260505151831 | 79 | 1.7 | 0.0 | 0.00 | 0.00 | 0.00 | 20 | 1012.0 | |
| 20260505150324 | 79 | 1.7 | 0.0 | 0.00 | 0.00 | 0.00 | 20 | 1012.0 |